Location: Unspecified
(0.0000°N, 0.0000°E)
Time: 11:37:05
(UTC+00:00)

Vanguard 2 Rocket - Pass Details

Date: 16 December 2017
Orbit: 556 x 3326 km, 32.9° (Epoch: 17 January)

Event Time Altitude Azimuth Distance (km) Brightness Sun altitude
Rises 19:49:11 0° 310° (NW) 5,196 11.1 -25.8°
Reaches altitude 10° 19:55:09 10° 334° (NNW) 4,805 10.5 -27.2°
Maximum altitude 20:01:49 14° 2° (N) 5,013 10.4 -28.6°
Enters shadow 20:04:35 14° 13° (NNE) 5,259 10.4 -29.3°
